Tracking 19969 objects as of 12-Nov-2019
Live streaming from Space Station
objects crossing your sky now
Track the group of recently launched Starlink satellites

METEOR 2-17 DEB

Track METEOR 2-17 DEB now!
10-day predictions


NORAD ID: 31398
Int'l Code: 1988-005T
Perigee: 906.8 km
Apogee: 946.2 km
Inclination: 82.5 °
Period: 103.4 minutes
Semi major axis: 7297 km
RCS: 0.0054 m2 (small)
Launch date: January 30, 1988
Source: Commonwealth of Independent States (former USSR) (CIS)
Launch site: PLESETSK MISSILE AND SPACE COMPLEX (PKMTR)

Note: This is SATELLITE DEBRIS
aabbcc
Your satellite tracking list
Your tracking list is empty




NASA's NSSDC Master Catalog

Two Line Element Set (TLE):
1 31398U 88005T   19301.11265453  .00000667  00000-0  50389-3 0  9993
2 31398  82.5392  78.1633 0026969 324.7827  35.1555 13.92655425667250
Source of the keplerian elements: AFSPC